Regional Weather Roundup
Issued by NWS

Home | Current Version | Previous Version | Graphics & Text | Print | Product List | Glossary On
Versions: 1 2 3 4 5 6 7 8 9 10 11 12 13 14 15 16 17 18 19 20 21 22 23 24 25 26 27 28 29 30 31 32 33 34 35 36 37 38 39 40 41 42 43 44 45 46 47 48 49 50
000
ASUS45 KBOU 270107
RWRCO

WEATHER ROUNDUP FOR COLORADO
NATIONAL WEATHER SERVICE DENVER/BOULDER CO
700 PM MDT TUE MAY 26 2015

NOTE: "FAIR" INDICATES FEW OR NO CLOUDS BELOW 12000 FEET WITH NO
SIGNIFICANT WEATHER AND/OR OBSTRUCTIONS TO VISIBILITY.

COZ001>005-013-030-031-270200-
...NORTHWEST COLORADO...

CITY           SKY/WX    TMP DP  RH WIND       PRES   REMARKS
CRAIG          LGT RAIN  55  42  61 S21G33    30.10R
HAYDEN         CLOUDY    54  43  66 E10       30.10S
MEEKER         LGT RAIN  50  43  77 NE5       30.13F
MOUNT WERNER   NOT AVBL
STEAMBOAT SPGS CLOUDY    52  44  73 SW10      30.13R
WALDEN         CLOUDY    50  41  71 SE12      30.17S
$$

COZ006>008-011-270200-
...WEST CENTRAL VALLEYS...

CITY           SKY/WX    TMP DP  RH WIND       PRES   REMARKS
GRAND JUNCTION CLOUDY    61  48  62 SE15      30.02F
MONTROSE       CLOUDY    58  47  66 W5        30.13F
EAGLE          CLOUDY    55  43  62 SW5       30.16R
RIFLE          CLOUDY    53  48  83 E6        30.12S
DELTA          CLOUDY    58  50  72 MISG      30.10F
NUCLA          CLOUDY    63  41  45 SW7       30.13S
$$

COZ017>023-064>068-270200-
...SOUTHWEST COLORADO...

CITY           SKY/WX    TMP DP  RH WIND       PRES   REMARKS
DURANGO        PTSUNNY   64  33  31 W9        30.12R
CORTEZ         MOSUNNY   66  41  40 E7        30.08S
PAGOSA SPRINGS PTSUNNY   61  34  36 W7        30.17S THUNDER
TELLURIDE      CLOUDY    48  39  70 CALM      30.27F
WOLF CREEK PAS NOT AVBL
$$

COZ009-010-012-014-032>034-037-058>063-270200-
...CENTRAL COLORADO...

CITY           SKY/WX    TMP DP  RH WIND       PRES   REMARKS
ASPEN          NOT AVBL
BUENA VISTA    CLOUDY    55  32  42 W18       30.16R
COPPER MTN     CLOUDY    37  32  81 W15       30.35S
BERTHOUD PASS  FAIR      28  21  74 NW17G23   30.37S WCI  16
COTTONWOOD PAS CLOUDY    50  30  46 W15G29    30.24R
GUNNISON       CLOUDY    50  37  62 S7        30.23R
KREMMLING      CLOUDY    52  37  58 CALM      30.18R
LEADVILLE      CLOUDY    44  32  62 NW15G22   30.24R
SALIDA         CLOUDY    58  36  43 S8        30.22R
SUNLIGHT       FOG       37  36  93 CALM      30.33R VSB 1/4
WILKERSON PASS CLOUDY    43  28  56 SW5       30.34R THUNDER
$$

COZ069>075-270200-
...SAN LUIS VALLEY/SANGRE DE CRISTO MOUNTAINS...

CITY           SKY/WX    TMP DP  RH WIND       PRES   REMARKS
ALAMOSA        CLOUDY    58  35  42 W12       30.14R
LA VETA PASS   CLOUDY   N/A N/A N/A MISG      30.26F
SAGUACHE       PTSUNNY   54  36  50 N15       30.19R THUNDER
$$

COZ035-036-038>040-270200-
...NORTHERN COLORADO FRONT RANGE...

CITY           SKY/WX    TMP DP  RH WIND       PRES   REMARKS
DENVER INTL AP PTSUNNY   64  48  56 SE5       30.03R
DMNS CITY PARK   N/A     65  41  40 NW6       30.04R
AURORA         NOT AVBL
FRONT RANGE AP PTSUNNY   66  48  52 SE6       30.03S
ERIE MUNI ARPT CLOUDY    66  43  42 CALM      30.02R
BOULDER MUN AP CLOUDY    64  43  45 S5        30.03R
CENTENNIAL     CLOUDY    62  45  53 SE8       30.05R
BROOMFIELD     NOT AVBL
FORT COLLINS   CLOUDY    64  46  52 CALM      30.03R
LONGMONT       CLOUDY    67  51  55 N3        30.03R
$$

COZ041-046-047-076>085-087-088-270200-
...PIKES PEAK/PALMER DIVIDE AND SOUTHERN FOOTHILLS...

CITY           SKY/WX    TMP DP  RH WIND       PRES   REMARKS
COLO. SPRINGS  TSTM      60  47  61 E7        30.08R
A. F. ACADEMY  PTSUNNY   59  42  53 S12       30.07S
ELLICOTT       PTSUNNY  N/A N/A N/A SE10      30.06S
FALCON         PTSUNNY   58  40  50 SE9       30.12R
FORT CARSON    PTSUNNY   62  48  58 VRB2      30.05R
LIMON          PTSUNNY   64  44  48 SE9       30.05R
MONUMENT HILL  PTSUNNY   54  45  71 MISG      30.11R
TRINIDAD       LGT RAIN  62  49  62 SE12      30.04R
$$

COZ042>045-048>051-090-091-270200-
...NORTHEAST COLORADO...

CITY           SKY/WX    TMP DP  RH WIND       PRES   REMARKS
GREELEY ARPT   CLOUDY    63  48  59 E8        30.01R
AKRON          MOSUNNY   64  49  57 E13       30.02R
BURLINGTON     MOSUNNY   67  49  52 SE9       30.03R
WRAY           SUNNY     68  50  52 E6        30.00S
STERLING       MOSUNNY   64  52  63 SE6       29.99R
HOLYOKE        SUNNY     70  50  49 SE3       30.01R
FORT MORGAN    MOSUNNY   63  49  60 E9        30.02R
$$

COZ086-089-092>099-270200-
...SOUTHEAST COLORADO...

CITY           SKY/WX    TMP DP  RH WIND       PRES   REMARKS
PUEBLO         PTSUNNY   71  44  37 E15       29.96F
LA JUNTA       MOSUNNY   71  48  43 E14       29.97S
LAMAR          MOSUNNY   71  53  52 E6        29.96S
SPRINGFIELD      N/A     69  48  47 SE8       30.01R
$$



USA.gov is the U.S. government's official web portal to all federal, state and local government web resources and services.